Location: Newark
(8.3667°S, 17.0167°E)
Time: 06:27:07
(UTC+00:00)

N. Korean satellite - Pass Details

Date: 21 November 2019
Orbit: 456 x 506 km, 97.2° (Epoch: 07 December)

Event Time Altitude Azimuth Distance (km) Brightness Sun altitude
Rises 17:13:16 0° 199° (SSW) 2,520 10.8 -5.4°
Reaches altitude 10° 17:16:08 10° 226° (SW) 1,648 10.6 -6.0°
Maximum altitude 17:17:58 14° 257° (WSW) 1,439 10.5 -6.5°
Drops below altitude 10° 17:19:49 10° 289° (WNW) 1,656 10.1 -6.9°
Sets 17:22:43 0° 315° (NW) 2,542 10.5 -7.6°
